Location: Newark
(25.0000°N, 73.5000°E)
Time: 21:51:43
(UTC+00:00)

Transit 2A Rocket - Pass Details

Date: 01 August 2021
Orbit: 586 x 916 km, 66.7° (Epoch: 16 September)

Event Time Altitude Azimuth Distance (km) Brightness Sun altitude
Rises 17:34:13 0° 355° (N) 3,363 9.0 -41.0°
Reaches altitude 10° 17:37:10 10° 10° (N) 2,480 8.0 -41.3°
Enters shadow 17:37:55 13° 16° (NNE) 2,286 7.8 -41.4°
